GFSGBSN_850_thetae_159.txt.gz
Theta_e
322 323 324 324 324 324 324 323 323 322 320 319 317 316 315 313 312 313 315 317 318 319 320 321 322 325 326 331 331 320 315 318 321 321 326 335 338 335 336 342 346 349 348 348 347 347 347
322 323 323 324 324 324 324 324 323 323 322 320 319 318 316 315 313 314 316 317 319 319 319 321 321 323 326 334 330 324 318 320 322 321 323 331 336 332 333 342 347 347 349 348 348 347 346
322 323 322 322 323 324 324 324 324 323 323 323 321 319 318 316 314 315 318 318 319 319 319 321 321 323 331 331 328 327 322 321 321 322 324 331 331 329 336 345 347 347 351 349 348 348 346
323 324 323 322 321 321 322 324 324 323 323 323 323 322 320 317 315 316 320 322 323 321 320 321 323 324 333 327 327 324 323 323 322 322 324 329 328 327 338 345 347 349 351 355 351 348 347
323 324 324 323 322 321 320 321 323 324 323 323 323 324 322 320 316 316 321 323 324 324 324 324 327 329 333 325 325 323 320 322 322 322 323 325 324 329 340 346 349 349 352 352 353 349 349
324 324 324 324 321 321 322 322 321 322 324 323 323 323 324 322 318 315 322 324 324 323 325 326 325 330 327 327 325 322 320 321 322 322 325 327 327 334 338 341 348 347 349 346 353 351 349
326 326 325 324 324 321 323 324 323 321 322 323 323 323 322 324 321 315 321 325 330 330 331 330 330 329 328 324 322 323 320 321 321 322 328 327 330 333 336 339 340 344 344 342 346 349 349
324 322 321 322 325 325 325 325 324 323 323 322 324 323 322 323 322 315 320 326 326 324 327 328 327 328 327 324 324 324 322 323 323 325 326 327 328 330 334 335 339 340 343 340 342 347 349
319 320 322 321 322 325 325 322 321 323 323 323 324 323 323 322 321 314 322 325 324 324 328 329 327 326 327 326 326 325 324 324 324 325 326 327 327 328 329 332 337 338 339 337 337 342 346
319 321 321 321 322 322 321 319 319 321 323 321 322 323 322 322 325 324 321 324 323 324 331 332 329 327 328 327 328 326 324 324 324 325 326 325 326 326 328 328 331 335 334 336 335 340 352
317 317 318 318 318 319 319 319 318 317 318 319 319 321 322 321 322 325 323 322 322 325 335 332 330 328 327 329 329 326 324 325 325 324 324 325 324 325 325 326 329 332 335 333 333 338 346
315 314 314 315 316 316 316 316 316 315 315 316 316 318 320 323 323 325 323 321 323 330 332 332 330 330 330 328 328 325 324 324 324 325 324 325 325 324 324 324 326 329 333 335 336 337 344
310 310 310 311 311 311 311 312 312 312 313 315 316 317 319 321 325 323 322 321 327 329 331 333 331 330 330 330 329 327 326 326 326 326 327 325 327 326 326 325 325 328 332 337 337 337 341
310 309 309 310 310 312 312 312 312 310 312 314 317 318 321 320 323 322 321 325 328 329 329 332 332 330 330 330 330 329 329 328 327 327 328 328 327 327 326 326 326 327 332 335 344 342 344
308 307 306 306 306 308 310 311 312 311 312 314 316 323 323 324 322 322 322 327 330 330 329 329 331 331 330 330 330 330 330 330 329 327 328 328 329 327 327 328 330 327 332 332 337 339 341
307 305 305 305 306 307 307 307 309 310 313 314 316 323 324 321 321 322 325 325 329 329 327 328 332 331 331 331 331 331 331 330 329 327 328 331 331 328 327 327 328 332 332 332 334 341 342
307 307 307 308 308 308 308 307 308 309 312 314 321 325 324 321 323 324 327 328 328 327 326 327 328 331 332 332 332 331 331 331 329 328 328 330 331 332 329 328 329 330 331 332 332 333 335
308 308 308 308 308 308 308 308 307 308 312 315 324 329 325 321 324 325 328 328 325 327 326 326 327 330 331 331 332 332 332 331 329 329 329 329 331 334 331 330 330 332 331 330 331 333 333
308 308 307 308 308 308 308 308 308 308 314 316 325 325 324 323 327 328 327 326 325 327 327 327 326 326 328 330 332 331 331 331 330 330 329 330 330 332 334 333 332 331 331 332 333 333 340
309 309 308 308 308 307 308 308 308 307 316 317 324 329 328 327 326 328 330 327 328 324 325 325 326 325 325 329 330 332 332 330 329 330 327 330 331 332 334 337 335 333 330 331 331 332 333
310 309 309 308 307 307 309 308 307 308 316 319 325 328 326 331 330 329 328 329 329 329 326 326 326 326 325 326 330 331 332 331 330 329 329 330 333 333 332 334 335 334 332 332 333 333 335
309 309 308 307 306 308 310 311 311 309 315 321 322 325 326 325 325 326 324 327 329 329 328 330 329 329 328 328 328 330 330 331 331 331 332 331 333 332 334 334 334 333 332 333 333 334 334
309 308 307 306 306 308 311 312 312 310 317 320 321 321 322 323 325 326 326 327 326 326 327 327 328 330 330 330 329 329 329 331 332 333 335 334 333 334 334 336 334 332 332 332 332 332 333
309 308 307 306 306 308 311 313 312 311 312 316 318 318 321 325 325 325 325 324 325 325 326 325 325 328 328 327 326 327 328 328 330 331 332 335 335 335 334 333 335 335 332 332 331 332 333
308 307 306 305 305 306 310 312 312 312 312 314 316 317 319 323 322 323 323 323 323 323 324 323 322 322 322 323 326 328 330 330 329 329 331 332 333 335 337 334 335 335 333 333 332 331 333
307 306 306 305 306 306 307 312 312 312 312 313 316 316 317 319 322 322 323 322 324 324 325 324 323 322 323 326 328 330 332 332 331 330 330 330 332 334 334 336 338 337 333 331 331 334 332
307 307 307 307 306 305 307 310 312 312 312 312 316 316 316 317 317 318 320 321 321 323 324 323 323 323 322 325 327 328 330 330 332 332 333 332 332 333 335 336 336 333 331 331 333 333 332
307 307 307 307 307 306 306 310 312 313 312 311 314 315 315 316 316 317 317 318 319 319 323 323 324 323 323 326 327 328 329 329 332 333 334 335 334 334 334 336 336 331 332 334 331 333 332
307 307 306 305 305 306 306 308 310 310 310 310 312 313 313 312 314 315 315 317 317 318 319 320 322 322 324 330 331 331 335 332 334 336 333 336 334 333 334 334 336 331 331 331 330 332 332

GFSGBSN_850_thetae_162.txt.gz
Theta_e
323 322 322 323 324 324 324 324 323 323 323 321 320 318 317 315 314 314 315 317 319 320 320 321 322 324 323 329 334 330 325 318 319 323 329 331 337 338 336 341 345 350 348 348 348 348 350
323 323 323 322 321 322 323 324 324 323 323 323 322 321 319 317 315 315 316 317 319 319 319 321 322 323 324 335 331 327 316 316 322 323 326 330 337 335 333 339 348 345 348 348 347 347 347
322 323 324 323 322 321 321 322 324 324 323 323 323 323 322 319 316 315 317 318 318 319 319 321 322 322 328 334 331 326 320 322 324 324 325 327 334 333 333 344 346 347 351 347 349 348 348
324 325 325 324 323 321 322 321 321 322 324 324 323 323 323 322 318 316 319 322 323 321 321 321 323 323 335 330 328 327 324 323 323 324 325 327 333 332 330 343 341 351 351 348 350 347 345
325 325 325 325 324 324 321 323 323 322 321 322 323 323 323 324 321 316 321 324 324 324 324 324 324 328 334 331 325 325 324 324 323 324 325 327 329 330 331 345 350 348 349 346 352 347 345
324 325 324 323 323 325 324 324 325 324 323 322 322 323 323 323 323 317 320 324 324 324 323 325 326 332 333 329 326 325 321 323 324 323 324 326 330 331 331 337 352 349 347 347 352 351 349
321 320 320 322 322 322 325 325 324 321 323 323 321 323 323 322 324 320 318 323 331 329 332 330 333 331 330 325 325 323 322 322 324 323 325 328 332 331 332 336 343 343 342 345 347 351 350
317 319 322 323 323 323 323 323 321 319 320 323 321 322 323 323 323 320 316 325 328 326 327 330 331 330 329 325 324 324 321 323 324 324 324 329 329 330 332 335 342 345 345 345 349 347 351
321 322 321 321 321 320 320 320 320 320 319 320 321 319 322 322 323 316 318 325 326 326 327 329 330 328 329 327 325 326 323 324 324 324 326 328 329 329 329 331 335 342 344 342 340 344 347
319 318 318 318 319 319 320 320 320 319 318 317 318 319 319 321 325 327 325 324 325 325 330 331 330 328 328 327 328 327 326 325 326 326 326 327 327 328 328 329 331 333 336 339 337 337 344
316 314 314 314 314 315 315 315 315 315 316 317 318 318 319 320 321 326 327 324 324 325 333 332 331 329 328 328 330 328 326 325 326 325 326 327 326 326 327 327 328 330 335 336 336 335 338
313 313 313 313 313 313 315 315 315 314 313 314 317 317 319 320 323 322 327 325 323 329 332 334 331 330 330 329 330 328 327 325 326 326 325 325 326 326 325 326 326 329 332 335 336 335 336
311 310 309 308 308 309 311 313 314 314 314 313 315 316 318 318 324 327 324 323 326 328 331 333 332 331 330 330 330 329 327 326 326 326 327 326 325 327 325 324 325 325 328 331 336 337 337
312 309 308 307 308 309 309 310 310 310 312 314 315 315 319 320 324 325 325 324 327 329 329 331 333 332 330 331 330 329 328 327 327 327 328 329 327 326 327 326 326 325 327 330 339 348 347
312 308 309 310 310 310 311 311 311 311 311 313 315 320 325 327 323 325 325 326 328 330 331 331 331 333 331 330 330 330 330 330 330 328 328 329 330 329 328 327 327 326 327 329 332 342 347
313 310 311 311 311 311 312 312 311 312 313 313 315 324 326 326 324 324 327 326 328 329 331 329 329 333 332 332 331 331 331 331 330 330 329 329 330 329 328 327 327 330 329 329 332 338 348
312 311 311 311 311 312 312 312 311 312 314 316 321 329 327 325 324 325 329 329 329 328 329 330 329 330 332 332 332 332 332 332 331 330 329 328 330 334 331 327 327 329 332 332 333 334 338
312 311 311 311 311 311 311 310 309 310 314 317 324 331 328 325 326 327 329 329 328 329 329 329 328 329 330 332 334 334 334 333 332 330 329 328 329 333 334 330 329 329 331 332 332 336 334
313 312 311 311 311 310 310 309 309 309 310 315 324 328 327 326 328 330 329 329 328 328 328 329 329 328 328 330 332 333 333 333 332 331 330 330 329 331 332 334 331 329 331 333 331 332 337
313 312 311 310 310 309 309 310 310 308 310 316 324 329 329 328 328 329 330 331 331 327 327 327 328 328 329 328 329 331 332 332 331 331 328 329 330 331 331 338 337 337 331 331 332 334 335
312 310 310 309 308 308 309 309 310 310 310 317 327 329 328 331 332 332 331 330 330 331 330 326 328 328 328 328 327 329 331 332 332 330 331 331 331 332 332 335 336 336 336 335 331 332 333
311 310 309 308 308 307 308 310 311 312 310 320 325 325 324 325 326 328 326 330 327 329 330 330 330 329 329 328 329 329 328 332 332 332 331 331 335 331 332 332 333 335 336 336 332 333 333
310 309 309 308 307 307 308 310 311 312 312 321 322 321 323 325 325 326 327 327 327 328 327 328 330 331 331 331 330 330 330 330 332 333 333 333 335 337 335 332 335 339 337 336 334 335 335
309 309 309 308 307 306 306 309 312 311 311 314 319 319 320 324 325 326 326 326 327 327 327 327 327 328 328 328 329 329 329 329 330 332 333 336 338 340 335 336 338 335 336 335 332 333 332
310 309 308 308 307 307 307 308 313 312 312 313 317 319 320 323 322 323 324 325 324 324 325 325 324 324 325 325 328 329 329 330 331 331 332 333 336 337 339 337 336 334 334 335 334 333 332
309 308 308 307 307 306 306 308 311 312 312 312 316 317 318 320 324 321 322 323 325 324 325 324 324 325 324 325 326 328 328 328 330 330 330 330 333 336 336 336 337 337 335 333 334 335 332
308 308 308 307 308 308 308 307 310 311 311 312 315 317 317 319 319 320 322 322 321 323 325 325 324 324 325 325 327 327 328 328 330 331 335 334 334 336 335 336 335 335 334 332 338 337 333
308 308 307 307 306 306 307 307 310 311 312 311 314 315 316 318 318 317 318 319 320 321 323 322 323 325 326 325 326 326 326 327 328 332 334 336 339 336 338 338 338 334 334 335 335 332 333
307 307 306 305 305 305 305 306 306 309 310 309 312 316 314 314 316 315 315 316 317 319 320 321 321 323 324 327 329 331 335 333 333 335 332 333 335 338 334 336 336 333 332 333 331 333 333

GFSGBSN_850_thetae_165.txt.gz
Theta_e
323 323 323 322 321 321 321 323 324 323 323 323 323 322 320 318 315 315 315 316 319 320 320 320 321 322 321 323 324 332 326 323 321 319 333 331 330 333 336 341 348 350 351 347 347 348 347
324 324 324 324 323 321 321 321 321 322 324 323 323 323 323 321 317 315 316 317 318 319 319 320 321 321 322 331 331 332 330 321 320 320 326 328 330 332 334 338 346 346 348 348 348 348 348
325 325 325 325 325 324 321 322 323 322 321 322 323 323 323 323 320 316 317 318 318 318 319 321 321 322 322 329 328 330 322 318 319 323 324 325 327 330 333 333 348 347 346 344 347 347 347
323 324 325 324 323 324 325 324 324 324 324 322 321 322 323 323 323 318 318 321 323 322 321 321 321 322 324 334 331 329 324 321 323 325 324 324 326 332 333 335 345 350 347 349 348 349 347
322 322 321 321 323 323 323 325 325 324 322 323 322 321 322 322 323 321 318 323 324 324 324 324 322 332 332 331 330 328 327 324 323 323 324 325 327 329 330 329 349 347 348 346 350 342 348
321 318 319 323 324 324 324 323 324 323 321 320 322 321 322 322 322 323 317 322 323 323 323 323 323 328 331 332 331 325 324 324 324 323 324 325 326 326 327 326 335 352 348 346 349 351 350
319 322 324 323 322 322 322 322 322 321 321 321 320 321 321 322 322 323 317 319 331 329 324 325 329 327 331 331 327 326 322 322 324 324 321 324 323 327 328 328 341 344 343 345 344 343 347
322 321 320 320 320 320 321 321 321 322 322 321 319 319 319 322 322 322 318 318 328 326 326 327 329 329 330 326 324 324 323 322 322 322 322 321 323 327 329 337 338 340 343 344 345 345 348
318 317 316 316 316 316 317 317 318 318 318 319 320 320 320 321 321 322 324 317 323 324 325 326 326 330 331 326 325 325 322 322 323 322 322 320 324 328 328 329 342 341 342 345 346 348 349
316 315 315 315 315 315 316 317 316 316 317 316 316 319 321 323 321 328 327 326 325 324 324 328 328 328 331 328 326 326 323 323 323 322 321 322 325 326 326 326 333 330 339 343 342 345 348
317 316 315 314 312 311 312 313 315 316 317 317 316 316 320 318 320 323 327 327 324 324 330 332 329 329 328 328 328 327 325 324 324 324 324 323 324 325 324 325 326 326 328 335 337 335 333
317 315 313 312 311 312 312 313 313 313 314 315 317 315 319 319 320 322 325 326 324 325 331 332 330 328 327 328 328 328 326 325 325 325 323 322 325 324 323 324 324 325 324 329 335 333 332
318 315 312 312 313 313 313 314 314 314 314 314 317 317 316 318 320 325 326 325 323 326 329 332 330 328 328 328 328 326 326 324 323 324 322 324 323 322 326 323 322 323 320 323 327 330 343
318 316 314 314 313 313 314 314 314 314 314 315 318 318 318 321 319 325 325 325 325 327 325 327 330 329 329 328 329 329 326 324 323 323 323 324 325 323 324 322 321 320 318 319 329 345 343
317 316 316 314 313 314 313 313 313 314 315 315 319 318 323 327 324 325 326 327 327 327 328 329 329 331 330 329 329 328 327 325 325 323 322 324 326 327 324 325 323 322 320 319 322 341 343
317 316 316 315 314 313 313 312 312 314 314 315 319 325 326 327 325 325 327 326 327 327 327 328 328 329 329 330 329 328 328 328 328 328 324 326 326 325 326 326 324 323 323 322 320 336 345
317 316 316 315 313 313 312 311 311 313 314 315 320 328 328 326 324 325 327 328 328 328 328 329 329 329 328 329 329 330 329 330 330 329 327 326 324 325 332 325 323 322 324 327 326 329 337
317 316 315 313 313 312 311 311 311 312 314 315 323 330 327 326 326 326 326 327 328 328 328 328 328 328 328 328 328 329 332 332 332 330 328 326 323 326 331 331 326 325 324 326 328 330 331
317 316 315 313 312 311 311 311 311 312 309 312 318 325 328 326 327 327 327 328 328 328 327 328 328 328 328 328 328 328 329 331 333 331 331 327 324 324 327 331 330 326 325 327 327 325 332
316 314 313 312 311 310 310 310 311 312 310 312 321 330 329 327 328 328 329 329 329 330 330 327 326 326 326 327 327 328 328 330 330 331 329 328 326 328 326 332 335 336 335 333 334 329 334
316 313 311 311 311 310 310 310 310 312 312 314 325 328 325 329 327 326 327 328 332 331 329 329 330 327 327 326 327 327 327 327 329 331 331 328 329 331 329 335 335 334 333 332 332 334 332
314 312 311 310 310 310 309 308 309 312 313 324 323 323 322 323 325 325 324 327 327 327 327 327 329 330 329 329 328 327 327 328 331 331 332 328 329 332 331 330 333 334 334 334 335 335 333
312 311 310 310 309 309 309 308 309 311 312 316 318 319 321 322 322 323 325 325 326 326 328 328 328 329 330 328 326 328 330 329 328 329 330 333 331 333 331 330 331 337 335 335 335 335 335
311 310 310 309 309 308 308 308 309 312 312 312 317 318 321 322 322 323 324 324 325 325 327 325 326 326 326 325 325 326 328 328 328 327 328 330 337 337 337 336 337 332 333 335 334 335 334
310 309 309 309 309 309 308 307 308 310 312 312 316 317 320 321 320 321 322 323 323 324 325 325 324 324 324 325 325 327 326 328 329 328 327 327 333 334 336 337 336 334 334 334 336 336 333
309 308 308 308 309 309 309 309 308 309 310 311 314 316 317 319 321 319 321 322 323 323 324 324 324 324 325 324 325 328 328 329 330 328 327 326 327 330 333 336 338 334 334 334 332 336 334
308 308 308 308 308 307 307 308 308 309 312 312 315 315 315 317 317 318 319 320 320 321 322 323 322 323 324 326 326 325 326 327 327 327 327 328 331 330 330 334 333 335 333 334 335 333 333
308 307 307 307 306 306 306 306 307 307 309 310 311 314 316 316 315 315 317 317 317 319 323 322 322 325 327 329 329 327 328 326 326 326 328 329 332 333 329 330 331 333 333 332 332 332 333
308 307 306 306 306 306 305 305 306 306 306 308 310 312 312 314 315 315 314 312 314 315 318 319 321 321 323 325 327 326 328 331 331 334 332 337 331 336 336 336 331 332 333 334 332 332 332

GFSGBSN_850_thetae_168.txt.gz
Theta_e
324 325 325 324 324 324 321 321 322 321 321 322 323 323 322 322 319 316 315 316 318 320 320 319 320 320 321 319 324 334 331 325 322 320 327 334 330 330 331 342 346 348 345 349 348 345 344
323 323 324 324 323 323 324 323 322 324 323 321 321 322 322 322 321 318 316 317 317 319 319 319 320 320 321 325 332 331 330 326 323 321 322 336 331 328 328 345 345 348 349 349 348 348 344
323 321 321 320 322 324 323 324 324 324 323 323 322 321 321 322 322 320 318 318 318 318 318 319 320 320 322 322 330 329 329 318 321 320 322 331 325 324 328 348 344 345 346 347 349 349 347
321 321 319 321 325 325 324 324 324 324 323 321 321 322 320 321 321 322 319 319 322 323 322 321 320 321 323 321 328 330 327 321 320 323 324 324 324 325 333 345 346 343 346 348 347 346 347
319 320 323 324 323 323 323 323 323 323 322 321 321 321 321 321 321 322 320 319 322 323 323 323 322 326 330 330 331 330 327 326 322 323 324 323 324 326 328 337 346 348 350 347 352 348 347
323 323 322 321 321 321 322 322 322 322 323 323 323 320 321 320 321 320 322 317 321 322 322 323 322 324 327 331 332 328 326 326 324 323 323 323 324 322 321 322 327 347 346 346 349 347 342
321 320 318 318 318 318 318 319 320 322 322 322 322 322 319 320 321 320 322 317 324 329 325 327 326 325 328 331 332 326 325 323 324 323 320 322 320 320 321 323 326 334 343 345 346 347 348
318 318 317 316 316 316 316 317 318 318 318 318 319 320 323 321 321 321 321 316 323 324 322 324 326 327 327 328 326 325 323 321 321 320 320 318 317 320 322 325 338 341 342 345 346 346 349
318 317 315 314 313 312 312 313 314 315 317 318 319 319 321 325 323 321 321 323 325 325 321 323 324 325 326 328 327 324 323 321 320 320 320 317 319 321 322 325 330 338 339 343 347 347 349
318 318 315 313 313 313 313 314 314 314 314 315 317 318 318 323 322 324 326 327 326 323 319 322 325 325 326 328 324 324 323 322 319 320 319 318 321 321 321 324 336 339 339 342 349 352 352
319 317 316 314 314 315 315 315 316 316 316 315 315 316 318 318 323 323 324 326 323 323 323 327 325 328 329 329 327 323 324 321 320 321 318 319 322 321 322 322 331 326 329 340 346 349 347
319 317 316 315 315 315 315 315 315 315 315 315 316 316 318 318 321 323 324 325 324 321 327 329 328 326 324 327 327 324 324 322 323 322 321 320 323 321 321 322 322 324 323 320 327 331 332
317 317 317 316 315 315 315 315 315 315 314 315 315 318 319 319 322 325 326 325 317 321 324 329 327 325 324 325 325 323 322 321 321 322 320 320 322 321 322 322 319 322 315 317 321 324 333
318 317 317 317 316 315 314 314 314 314 314 315 316 319 320 321 321 323 325 319 322 323 322 323 326 325 325 325 325 324 322 321 319 320 319 321 321 322 322 321 320 318 315 315 322 336 340
318 318 318 317 315 314 314 314 314 315 315 315 317 322 323 325 320 324 325 322 320 322 325 325 324 325 326 326 326 325 322 323 321 318 321 318 321 323 322 321 319 320 318 315 325 333 333
319 318 317 317 315 314 313 313 313 315 315 315 318 328 326 325 322 325 322 323 322 324 325 324 326 326 327 327 326 325 323 323 323 321 319 321 322 323 324 323 322 319 319 319 316 331 337
320 318 317 316 314 313 313 313 313 314 315 314 321 327 327 325 325 325 322 322 324 326 327 326 326 325 325 326 326 326 326 326 325 325 320 320 321 324 325 322 321 319 319 320 318 323 333
322 318 316 315 314 313 313 312 312 313 315 314 316 324 327 325 322 321 320 323 326 325 327 325 324 324 326 326 325 325 327 326 328 327 323 320 318 321 322 325 322 320 319 317 321 326 327
321 318 315 314 313 313 313 312 312 312 313 312 314 322 326 325 321 319 320 323 325 326 325 324 325 325 324 325 325 326 326 327 327 329 327 321 318 320 321 321 326 324 322 325 320 320 325
321 317 314 313 313 312 312 312 312 312 313 317 320 321 326 326 324 323 322 324 324 327 327 325 325 324 324 324 323 325 325 326 326 327 329 326 318 319 321 322 326 332 332 330 327 325 331
318 315 313 312 312 311 311 311 311 312 314 323 325 322 321 319 320 320 321 322 324 325 326 324 323 325 324 323 323 324 325 324 326 328 327 323 324 323 323 325 333 331 331 329 330 328 331
316 313 312 312 311 310 309 310 310 311 313 321 320 319 319 320 320 318 318 321 322 323 323 324 325 327 322 323 324 324 324 325 327 325 325 323 326 325 328 330 331 331 332 333 333 332 331
314 312 312 310 310 310 309 309 309 310 311 312 316 317 319 319 317 318 319 321 322 323 324 324 324 325 324 324 324 324 324 324 323 326 324 326 328 328 330 329 329 333 331 331 332 333 331
312 312 311 310 310 310 310 310 309 309 310 313 316 317 318 318 318 319 319 321 321 321 322 322 323 322 323 324 324 324 325 324 325 324 323 325 327 328 330 330 333 328 327 330 332 333 331
311 311 310 310 310 309 309 309 309 309 310 311 315 316 318 317 318 318 317 319 319 319 320 321 322 322 323 324 320 322 321 323 325 325 325 322 326 327 331 331 330 332 332 333 333 333 333
311 310 309 309 309 308 308 307 308 308 310 312 315 315 315 317 314 316 317 318 317 317 318 320 321 322 322 318 320 323 325 325 325 325 320 320 321 326 328 333 334 330 331 332 330 333 333
310 310 309 309 308 307 307 306 306 307 308 309 312 313 314 316 315 316 315 315 317 317 317 319 319 321 324 321 322 321 323 323 325 324 324 322 324 328 326 329 329 329 331 331 332 331 332
309 309 309 308 307 306 306 306 306 306 306 307 309 314 312 313 313 313 315 315 314 314 316 318 318 319 319 324 328 327 325 325 326 324 324 323 326 326 326 328 329 330 332 331 328 330 335
309 308 308 306 306 305 305 306 306 306 306 306 307 308 309 311 311 312 313 313 313 313 314 314 318 317 320 319 321 321 324 324 326 329 328 332 329 330 329 328 329 330 329 328 328 329 331

GFSGBSN_850_thetae_171.txt.gz
Theta_e
323 322 321 321 322 323 323 324 323 323 323 322 321 320 321 322 321 319 317 316 317 319 319 318 320 320 320 317 327 333 330 324 323 321 322 327 331 329 325 345 347 346 344 349 348 347 347
321 321 319 319 324 324 324 324 324 324 323 322 321 321 320 321 321 321 319 317 317 318 318 318 319 320 321 320 330 331 329 327 326 322 320 326 330 325 338 344 346 347 349 349 345 344 344
320 321 322 324 325 323 324 324 324 323 323 323 321 321 321 320 320 321 320 318 318 318 318 319 320 320 321 321 331 330 326 319 322 324 320 326 329 323 338 344 346 346 348 346 349 348 347
324 325 323 322 322 321 322 323 323 322 323 323 323 322 321 320 320 320 321 319 320 322 322 322 322 322 321 322 326 329 325 318 319 321 321 324 324 323 337 343 340 345 343 346 347 346 346
323 322 320 319 319 319 319 320 321 322 323 323 324 324 321 320 320 320 321 320 319 321 322 322 322 323 324 329 328 329 329 322 321 323 324 324 323 325 344 341 342 345 347 346 348 347 346
320 319 318 318 317 317 317 318 319 319 319 320 321 322 323 319 320 321 320 321 317 319 320 322 323 323 324 329 332 331 328 325 323 322 322 322 323 319 319 322 327 343 346 346 347 346 342
319 318 317 316 315 314 313 313 314 315 317 319 319 320 321 323 320 322 320 320 321 327 326 324 323 324 325 327 331 331 327 325 323 323 319 320 319 319 320 321 324 329 343 345 347 345 348
318 318 316 314 314 314 314 314 315 315 315 315 317 319 320 321 324 323 321 318 318 323 320 322 322 324 325 326 328 329 327 323 321 319 318 317 317 318 320 321 324 336 341 345 346 347 348
318 317 316 314 314 315 315 315 315 315 316 316 316 317 318 319 324 323 321 325 324 324 321 323 323 323 323 326 327 327 324 322 319 318 317 317 318 318 319 319 323 337 340 342 348 347 348
318 317 316 315 315 315 315 315 315 315 315 315 315 316 317 318 323 322 325 325 325 322 316 319 323 325 324 327 328 327 323 321 319 318 317 317 318 319 319 320 321 322 333 340 349 349 348
317 317 317 317 316 316 315 315 315 315 315 314 314 315 317 318 319 323 324 325 324 322 318 322 324 325 326 326 324 325 324 321 318 318 317 319 320 320 319 319 327 327 336 342 348 348 346
318 317 317 317 317 316 315 315 315 315 315 315 315 315 317 319 319 322 323 325 323 319 322 325 326 325 326 327 326 320 322 321 321 318 319 319 321 320 319 320 326 326 320 320 330 335 336
319 318 318 318 317 316 315 315 315 315 315 315 315 315 319 320 320 324 324 324 316 321 320 324 326 324 325 324 325 321 320 319 320 321 320 320 321 320 320 321 319 315 315 317 318 324 334
320 319 318 317 316 315 315 315 315 315 315 315 316 319 321 320 320 324 325 318 320 320 321 322 325 323 324 323 324 322 319 319 318 319 317 320 322 321 320 320 319 317 315 315 319 322 337
323 321 319 317 316 315 315 315 316 316 315 315 316 326 323 323 321 324 325 317 316 319 323 324 324 324 324 325 326 323 320 321 320 316 320 318 321 320 321 319 319 317 316 314 324 328 331
324 322 320 317 316 315 315 315 315 316 315 315 318 327 326 324 320 325 320 319 321 320 324 324 326 324 326 325 325 322 322 322 322 318 318 320 322 320 323 320 319 318 314 317 315 324 330
324 322 320 316 315 315 315 314 314 315 315 315 323 327 326 322 323 325 319 319 323 324 325 325 324 325 324 324 322 323 324 325 323 322 317 317 319 323 324 321 319 318 318 316 314 316 319
324 322 318 315 314 314 314 313 313 314 315 315 316 323 326 324 321 316 319 320 323 324 326 324 323 323 324 323 324 324 324 326 326 324 320 317 316 320 321 321 320 318 317 316 317 320 324
323 321 317 315 314 314 312 312 312 313 314 322 319 324 325 325 320 317 319 322 323 324 324 324 324 322 322 322 324 323 325 325 325 325 325 319 317 321 321 319 322 321 318 317 315 316 323
322 319 316 314 313 312 312 312 312 312 314 323 324 320 324 324 321 320 321 322 322 323 323 323 322 323 323 322 321 323 324 325 326 327 329 321 313 320 326 322 321 329 329 326 323 324 328
321 318 314 313 312 311 311 312 312 312 313 321 321 318 318 318 319 317 318 320 322 322 322 323 321 324 324 323 322 324 324 323 326 326 325 320 323 318 319 320 327 328 330 329 328 326 329
318 314 313 312 311 311 311 311 311 312 312 318 319 318 318 318 318 317 315 318 321 322 322 323 323 323 323 324 322 323 323 323 324 323 323 321 327 323 325 324 329 331 328 327 330 329 330
315 313 312 311 311 311 310 310 310 311 311 314 315 317 318 317 315 316 317 319 321 321 321 322 321 320 323 322 321 322 322 323 321 324 323 324 326 326 327 327 328 330 328 328 330 329 329
313 312 311 310 310 310 310 309 309 310 310 312 315 316 317 316 317 318 316 317 320 319 320 320 321 320 322 322 323 322 321 320 319 320 321 324 325 326 328 328 332 326 326 327 328 331 328
312 311 310 310 309 309 309 309 308 308 310 311 314 315 316 313 316 315 316 317 318 318 318 320 321 321 321 320 318 320 320 322 323 321 320 319 323 325 331 329 328 331 331 331 331 330 329
311 311 310 309 309 308 308 308 307 307 308 311 315 314 314 315 312 315 315 316 315 315 316 318 319 320 321 316 318 321 323 323 324 325 317 317 318 323 326 331 333 328 328 330 328 331 329
311 310 310 309 308 307 307 307 307 307 307 307 310 312 313 314 314 315 314 314 314 314 313 315 314 315 320 319 322 320 322 321 324 323 323 320 320 323 324 327 326 328 331 330 332 330 327
311 310 309 308 307 306 306 306 307 306 306 307 307 312 311 311 311 311 312 313 314 314 312 313 313 316 316 319 324 323 324 324 327 323 322 322 325 323 322 326 329 329 331 331 326 327 330
310 309 308 307 306 306 306 305 306 306 306 306 307 307 307 309 309 310 310 310 311 312 311 312 313 314 316 317 318 317 322 324 326 327 325 329 325 328 325 323 326 328 328 328 327 327 328